Back to catalog

ASTRA 1B

AliveCommunicationsGEO
NORAD 21139·PAYLOAD·🇱🇺 Luxembourg

Launched Mar 2, 1991 from Guiana Space Centre

Loading…

TLE

FreshSource: Space-Track

Epoch: Sep 13, 2026, 22:39 UTC

1 21139U 91015A   26256.94416285 -.00000008  00000-0  00000-0 0  9991
2 21139  13.4768  21.5453 0004637   2.6212   2.1825  0.98509180117164

Track ASTRA 1B in real time with AllMySat

Download on the App Store